Regional Weather Roundup
Issued by NWS State College, PA

Home | Current Version | Previous Version | Text Only | Print | Product List | Glossary On
Versions: 1 2 3 4 5 6 7 8 9 10 11 12 13 14 15 16 17 18 19 20 21 22 23 24 25 26 27 28 29 30 31 32 33 34 35 36 37 38 39 40 41 42 43 44 45 46 47 48 49 50
000
ASUS41 KCTP 231510
RWRCTP

REGIONAL WEATHER ROUNDUP
NATIONAL WEATHER SERVICE STATE COLLEGE PA
1100 AM EDT WED AUG 23 2017

Note: "fair" indicates few or no clouds below 12,000 feet with no
significant weather and/or obstructions to visibility.

* = STATION THAT DOES NOT REPORT PRECIPITATION /E.G. RAIN...SNOW...ETC/
    THUNDER OR FOG.

PAZ002>004-007>009-013>016-020>023-029>032-231600-
WESTERN PENNSYLVANIA

CITY           SKY/WX    TMP DP  RH WIND       PRES   REMARKS
ERIE           MOSUNNY   71  54  54 W14       29.92S
MEADVILLE      PTSUNNY   68  55  63 W10G20    29.96S
FRANKLIN*      PTSUNNY   66  52  59 W7        29.98R
NEW CASTLE     FAIR      70  57  63 SW6       29.98S
BEAVER COUNTY  MOSUNNY   73  54  49 W3        29.99R
BUTLER*        SUNNY     69  53  56 W8        29.99S
PITTSBURGH INT MOSUNNY   70  55  59 NW12      29.98R
PITTSBURGH     PTSUNNY   69  54  58 NW5       29.97S
INDIANA*       PTSUNNY   68  59  73 NW6       30.00S
LATROBE        PTSUNNY   68  59  73 CALM      29.99R
WASHINGTON CO* MOSUNNY   70  57  64 N7        29.98S
$$

PAZ004>006-010>012-017>019-024>028-033>037-041-042-045-046-049>053-231600-
CENTRAL PENNSYLVANIA

CITY           SKY/WX    TMP DP  RH WIND       PRES   REMARKS
BRADFORD       PTSUNNY   64  53  67 NW9       29.96S
DUBOIS         MOSUNNY   66  51  58 NW13      29.96S
CLEARFIELD     MOSUNNY   69  52  54 W7G17     29.96S
JOHNSTOWN      PTSUNNY   66  55  67 NW10      29.99R
ALTOONA        MOSUNNY   71  59  65 NW7       29.97R
STATE COLLEGE  PTSUNNY   68  55  64 NW9       29.95R
WILLIAMSPORT   PTSUNNY   74  56  53 NW9G18    29.89R
SELINSGROVE    MOSUNNY   75  60  59 NW5       29.91S
FT INDIANTOWN  PTSUNNY   74  55  49 N7        29.90R
CAPITAL CITY   MOSUNNY   76  58  53 NW8       29.91R
HARRISBURG     MOSUNNY   76  59  55 VRB7      29.90R
YORK           MOSUNNY   76  62  62 W7        29.91R
$$

PAZ038>040-043-044-047-048-054-055-060>062-067>071-231600-
EASTERN PENNSYLVANIA

CITY           SKY/WX    TMP DP  RH WIND       PRES   REMARKS
SCRANTON       CLOUDY    71  54  54 W6        29.90S
MOUNT POCONO   MOSUNNY   66  51  58 NW10G17   29.92R
ALLENTOWN      MOSUNNY   76  55  48 VRB7      29.88S
QUAKERTOWN*    SUNNY     73  55  53 N6        29.90S
READING        MOSUNNY   75  57  53 N8        29.89R
LANCASTER      MOSUNNY   77  57  50 N8        29.91R
COATESVILLE    SUNNY     75  63  64 NW8       29.91R
POTTSTOWN      SUNNY     74  58  57 NW6       29.91R
BLUE BELL      SUNNY     73  55  53 N6        29.90R
DOYLESTOWN     MOSUNNY   76  59  55 N5        29.88R
WILLOW GROVE   NOT AVBL
NORTH PHILA    MOSUNNY   80  57  45 N12       29.88R
PHILADELPHIA   PTSUNNY   78  57  48 N10       29.87R
$$




USA.gov is the U.S. government's official web portal to all federal, state and local government web resources and services.